owner,sensor,date,latitude,longitude,vertical_datum,wind_speed,wind_to_direction,wind_speed_of_gust,qcFlag 
WAVCIS,ioos:station:WAVCIS:CSI09:1,2011-02-01T00:00:00Z,29.1015,-89.9782,0.0,3.969,86.0,,'11111222,11111222,99999999' 
WAVCIS,ioos:station:WAVCIS:CSI09:1,2011-02-01T01:00:00Z,29.1015,-89.9782,0.0,3.954,104.0,,'11111222,11111222,99999999' 
WAVCIS,ioos:station:WAVCIS:CSI09:1,2011-02-01T02:00:00Z,29.1015,-89.9782,0.0,6.122,113.0,,'11111222,11111222,99999999' 
WAVCIS,ioos:station:WAVCIS:CSI09:1,2011-02-01T03:00:00Z,29.1015,-89.9782,0.0,5.647,110.0,,'11111222,11111222,99999999' 
WAVCIS,ioos:station:WAVCIS:CSI09:1,2011-02-01T04:00:00Z,29.1015,-89.9782,0.0,4.437,95.0,,'11111222,11111222,99999999' 
WAVCIS,ioos:station:WAVCIS:CSI09:1,2011-02-01T05:00:00Z,29.1015,-89.9782,0.0,6.027,87.0,,'11111222,11111222,99999999' 
WAVCIS,ioos:station:WAVCIS:CSI09:1,2011-02-01T06:00:00Z,29.1015,-89.9782,0.0,6.336,87.0,,'11111222,11111222,99999999' 
WAVCIS,ioos:station:WAVCIS:CSI09:1,2011-02-01T07:00:00Z,29.1015,-89.9782,0.0,6.146,84.0,,'11111222,11111222,99999999' 
WAVCIS,ioos:station:WAVCIS:CSI09:1,2011-02-01T08:00:00Z,29.1015,-89.9782,0.0,5.952,89.0,,'11111222,11111222,99999999' 
WAVCIS,ioos:station:WAVCIS:CSI09:1,2011-02-01T09:00:00Z,29.1015,-89.9782,0.0,6.032,106.0,,'11111222,11111222,99999999' 
WAVCIS,ioos:station:WAVCIS:CSI09:1,2011-02-01T10:00:00Z,29.1015,-89.9782,0.0,8.45,120.0,,'11111222,11111222,99999999' 
WAVCIS,ioos:station:WAVCIS:CSI09:1,2011-02-01T11:00:00Z,29.1015,-89.9782,0.0,8.2,126.0,,'11111222,11111222,99999999' 
WAVCIS,ioos:station:WAVCIS:CSI09:1,2011-02-01T12:00:00Z,29.1015,-89.9782,0.0,8.33,125.0,,'11111222,11111222,99999999' 
WAVCIS,ioos:station:WAVCIS:CSI09:1,2011-02-01T13:00:00Z,29.1015,-89.9782,0.0,7.77,116.0,,'11111222,11111222,99999999' 
WAVCIS,ioos:station:WAVCIS:CSI09:1,2011-02-01T14:00:00Z,29.1015,-89.9782,0.0,7.84,117.0,,'11111222,11111222,99999999' 
WAVCIS,ioos:station:WAVCIS:CSI09:1,2011-02-01T15:00:00Z,29.1015,-89.9782,0.0,9.22,129.0,,'11111222,11111222,99999999' 
WAVCIS,ioos:station:WAVCIS:CSI09:1,2011-02-01T16:00:00Z,29.1015,-89.9782,0.0,9.45,142.0,,'11111222,11111222,99999999' 
WAVCIS,ioos:station:WAVCIS:CSI09:1,2011-02-01T17:00:00Z,29.1015,-89.9782,0.0,10.67,158.0,,'11111222,11111222,99999999' 
WAVCIS,ioos:station:WAVCIS:CSI09:1,2011-02-01T18:00:00Z,29.1015,-89.9782,0.0,12.19,164.0,,'11111222,11111222,99999999' 
WAVCIS,ioos:station:WAVCIS:CSI09:1,2011-02-01T19:00:00Z,29.1015,-89.9782,0.0,12.96,169.0,,'11111222,11111222,99999999' 
WAVCIS,ioos:station:WAVCIS:CSI09:1,2011-02-01T20:00:00Z,29.1015,-89.9782,0.0,12.9,180.0,,'11111222,11111222,99999999' 
WAVCIS,ioos:station:WAVCIS:CSI09:1,2011-02-01T21:00:00Z,29.1015,-89.9782,0.0,14.16,179.0,,'11111222,11111222,99999999' 
WAVCIS,ioos:station:WAVCIS:CSI09:1,2011-02-01T22:00:00Z,29.1015,-89.9782,0.0,10.12,234.0,,'11111222,11111222,99999999' 
WAVCIS,ioos:station:WAVCIS:CSI09:1,2011-02-01T23:00:00Z,29.1015,-89.9782,0.0,9.97,255.0,,'11111222,11111222,99999999' 
WAVCIS,ioos:station:WAVCIS:CSI09:1,2011-02-02T00:00:00Z,29.1015,-89.9782,0.0,10.72,267.0,,'11111222,11111222,99999999' 
WAVCIS,ioos:station:WAVCIS:CSI09:1,2011-02-02T01:00:00Z,29.1015,-89.9782,0.0,10.43,279.0,,'11111222,11111222,99999999' 
WAVCIS,ioos:station:WAVCIS:CSI09:1,2011-02-02T02:00:00Z,29.1015,-89.9782,0.0,8.76,291.0,,'11111222,11111222,99999999' 
WAVCIS,ioos:station:WAVCIS:CSI09:1,2011-02-02T03:00:00Z,29.1015,-89.9782,0.0,10.59,308.0,,'11111222,11111222,99999999' 
WAVCIS,ioos:station:WAVCIS:CSI09:1,2011-02-02T04:00:00Z,29.1015,-89.9782,0.0,12.2,316.0,,'11111222,11111222,99999999' 
WAVCIS,ioos:station:WAVCIS:CSI09:1,2011-02-02T05:00:00Z,29.1015,-89.9782,0.0,11.95,315.0,,'11111222,11111222,99999999' 
WAVCIS,ioos:station:WAVCIS:CSI09:1,2011-02-02T06:00:00Z,29.1015,-89.9782,0.0,12.16,324.0,,'11111222,11111222,99999999' 
WAVCIS,ioos:station:WAVCIS:CSI09:1,2011-02-02T07:00:00Z,29.1015,-89.9782,0.0,12.58,330.0,,'11111222,11111222,99999999' 
WAVCIS,ioos:station:WAVCIS:CSI09:1,2011-02-02T08:00:00Z,29.1015,-89.9782,0.0,12.84,336.0,,'11111222,11111222,99999999' 
WAVCIS,ioos:station:WAVCIS:CSI09:1,2011-02-02T09:00:00Z,29.1015,-89.9782,0.0,13.19,356.0,,'11111222,11111222,99999999' 
WAVCIS,ioos:station:WAVCIS:CSI09:1,2011-02-02T10:00:00Z,29.1015,-89.9782,0.0,11.59,358.0,,'11111222,11111222,99999999' 
WAVCIS,ioos:station:WAVCIS:CSI09:1,2011-02-02T11:00:00Z,29.1015,-89.9782,0.0,11.85,350.0,,'11111222,11111222,99999999' 
WAVCIS,ioos:station:WAVCIS:CSI09:1,2011-02-02T12:00:00Z,29.1015,-89.9782,0.0,11.34,353.0,,'11111222,11111222,99999999' 
WAVCIS,ioos:station:WAVCIS:CSI09:1,2011-02-02T13:00:00Z,29.1015,-89.9782,0.0,11.3,348.0,,'11111222,11111222,99999999' 
WAVCIS,ioos:station:WAVCIS:CSI09:1,2011-02-02T14:00:00Z,29.1015,-89.9782,0.0,13.6,345.0,,'11111222,11111222,99999999' 
WAVCIS,ioos:station:WAVCIS:CSI09:1,2011-02-02T15:00:00Z,29.1015,-89.9782,0.0,12.16,349.0,,'11111222,11111222,99999999' 
WAVCIS,ioos:station:WAVCIS:CSI09:1,2011-02-02T16:00:00Z,29.1015,-89.9782,0.0,10.25,348.0,,'11111222,11111222,99999999' 
WAVCIS,ioos:station:WAVCIS:CSI09:1,2011-02-02T17:00:00Z,29.1015,-89.9782,0.0,10.06,352.0,,'11111222,11111222,99999999' 
WAVCIS,ioos:station:WAVCIS:CSI09:1,2011-02-02T18:00:00Z,29.1015,-89.9782,0.0,9.38,354.0,,'11111222,11111222,99999999' 
WAVCIS,ioos:station:WAVCIS:CSI09:1,2011-02-02T19:00:00Z,29.1015,-89.9782,0.0,11.59,356.0,,'11111222,11111222,99999999' 
WAVCIS,ioos:station:WAVCIS:CSI09:1,2011-02-02T20:00:00Z,29.1015,-89.9782,0.0,11.88,357.0,,'11111222,11111222,99999999' 
WAVCIS,ioos:station:WAVCIS:CSI09:1,2011-02-02T21:00:00Z,29.1015,-89.9782,0.0,11.77,357.0,,'11111222,11111222,99999999' 
WAVCIS,ioos:station:WAVCIS:CSI09:1,2011-02-02T22:00:00Z,29.1015,-89.9782,0.0,13.3,0.0,,'11111222,11111222,99999999' 
WAVCIS,ioos:station:WAVCIS:CSI09:1,2011-02-02T23:00:00Z,29.1015,-89.9782,0.0,13.69,13.0,,'11111222,11111222,99999999' 
WAVCIS,ioos:station:WAVCIS:CSI09:1,2011-02-03T00:00:00Z,29.1015,-89.9782,0.0,14.43,4.0,,'11111222,11111222,99999999' 
WAVCIS,ioos:station:WAVCIS:CSI09:1,2011-02-03T01:00:00Z,29.1015,-89.9782,0.0,14.08,18.0,,'11111222,11111222,99999999' 
WAVCIS,ioos:station:WAVCIS:CSI09:1,2011-02-03T02:00:00Z,29.1015,-89.9782,0.0,12.21,19.0,,'11111222,11111222,99999999' 
WAVCIS,ioos:station:WAVCIS:CSI09:1,2011-02-03T03:00:00Z,29.1015,-89.9782,0.0,13.4,24.0,,'11111222,11111222,99999999' 
WAVCIS,ioos:station:WAVCIS:CSI09:1,2011-02-03T04:00:00Z,29.1015,-89.9782,0.0,12.06,27.0,,'11111222,11111222,99999999' 
WAVCIS,ioos:station:WAVCIS:CSI09:1,2011-02-03T05:00:00Z,29.1015,-89.9782,0.0,11.41,31.0,,'11111222,11111222,99999999' 
WAVCIS,ioos:station:WAVCIS:CSI09:1,2011-02-03T06:00:00Z,29.1015,-89.9782,0.0,11.59,13.0,,'11111222,11111222,99999999' 
WAVCIS,ioos:station:WAVCIS:CSI09:1,2011-02-03T07:00:00Z,29.1015,-89.9782,0.0,12.34,14.0,,'11111222,11111222,99999999' 
WAVCIS,ioos:station:WAVCIS:CSI09:1,2011-02-03T08:00:00Z,29.1015,-89.9782,0.0,11.81,21.0,,'11111222,11111222,99999999' 
WAVCIS,ioos:station:WAVCIS:CSI09:1,2011-02-03T09:00:00Z,29.1015,-89.9782,0.0,10.63,21.0,,'11111222,11111222,99999999' 
WAVCIS,ioos:station:WAVCIS:CSI09:1,2011-02-03T10:00:00Z,29.1015,-89.9782,0.0,10.55,31.0,,'11111222,11111222,99999999' 
WAVCIS,ioos:station:WAVCIS:CSI09:1,2011-02-03T11:00:00Z,29.1015,-89.9782,0.0,10.42,42.0,,'11111222,11111222,99999999' 
WAVCIS,ioos:station:WAVCIS:CSI09:1,2011-02-03T12:00:00Z,29.1015,-89.9782,0.0,9.41,34.0,,'11111222,11111222,99999999' 
WAVCIS,ioos:station:WAVCIS:CSI09:1,2011-02-03T13:00:00Z,29.1015,-89.9782,0.0,8.87,11.0,,'11111222,11111222,99999999' 
WAVCIS,ioos:station:WAVCIS:CSI09:1,2011-02-03T14:00:00Z,29.1015,-89.9782,0.0,10.32,20.0,,'11111222,11111222,99999999' 
WAVCIS,ioos:station:WAVCIS:CSI09:1,2011-02-03T15:00:00Z,29.1015,-89.9782,0.0,9.68,21.0,,'11111222,11111222,99999999' 
WAVCIS,ioos:station:WAVCIS:CSI09:1,2011-02-03T16:00:00Z,29.1015,-89.9782,0.0,9.54,24.0,,'11111222,11111222,99999999' 
WAVCIS,ioos:station:WAVCIS:CSI09:1,2011-02-03T17:00:00Z,29.1015,-89.9782,0.0,10.31,26.0,,'11111222,11111222,99999999' 
WAVCIS,ioos:station:WAVCIS:CSI09:1,2011-02-03T18:00:00Z,29.1015,-89.9782,0.0,11.66,13.0,,'11111222,11111222,99999999' 
WAVCIS,ioos:station:WAVCIS:CSI09:1,2011-02-03T19:00:00Z,29.1015,-89.9782,0.0,10.66,14.0,,'11111222,11111222,99999999' 
WAVCIS,ioos:station:WAVCIS:CSI09:1,2011-02-03T20:00:00Z,29.1015,-89.9782,0.0,12.12,6.0,,'11111222,11111222,99999999' 
WAVCIS,ioos:station:WAVCIS:CSI09:1,2011-02-03T21:00:00Z,29.1015,-89.9782,0.0,9.88,14.0,,'11111222,11111222,99999999' 
WAVCIS,ioos:station:WAVCIS:CSI09:1,2011-02-03T22:00:00Z,29.1015,-89.9782,0.0,10.81,20.0,,'11111222,11111222,99999999' 
WAVCIS,ioos:station:WAVCIS:CSI09:1,2011-02-03T23:00:00Z,29.1015,-89.9782,0.0,10.34,30.0,,'11111222,11111222,99999999' 
WAVCIS,ioos:station:WAVCIS:CSI09:1,2011-02-04T00:00:00Z,29.1015,-89.9782,0.0,9.59,37.0,,'11111222,11111222,99999999' 
WAVCIS,ioos:station:WAVCIS:CSI09:1,2011-02-04T01:00:00Z,29.1015,-89.9782,0.0,9.34,22.0,,'11111222,11111222,99999999' 
WAVCIS,ioos:station:WAVCIS:CSI09:1,2011-02-04T02:00:00Z,29.1015,-89.9782,0.0,10.11,30.0,,'11111222,11111222,99999999' 
WAVCIS,ioos:station:WAVCIS:CSI09:1,2011-02-04T03:00:00Z,29.1015,-89.9782,0.0,10.89,37.0,,'11111222,11111222,99999999' 
WAVCIS,ioos:station:WAVCIS:CSI09:1,2011-02-04T04:00:00Z,29.1015,-89.9782,0.0,10.15,42.0,,'11111222,11111222,99999999' 
WAVCIS,ioos:station:WAVCIS:CSI09:1,2011-02-04T05:00:00Z,29.1015,-89.9782,0.0,10.76,45.0,,'11111222,11111222,99999999' 
WAVCIS,ioos:station:WAVCIS:CSI09:1,2011-02-04T06:00:00Z,29.1015,-89.9782,0.0,9.74,38.0,,'11111222,11111222,99999999' 
WAVCIS,ioos:station:WAVCIS:CSI09:1,2011-02-04T07:00:00Z,29.1015,-89.9782,0.0,10.65,35.0,,'11111222,11111222,99999999' 
WAVCIS,ioos:station:WAVCIS:CSI09:1,2011-02-04T08:00:00Z,29.1015,-89.9782,0.0,10.21,41.0,,'11111222,11111222,99999999' 
WAVCIS,ioos:station:WAVCIS:CSI09:1,2011-02-04T09:00:00Z,29.1015,-89.9782,0.0,10.84,48.0,,'11111222,11111222,99999999' 
WAVCIS,ioos:station:WAVCIS:CSI09:1,2011-02-04T10:00:00Z,29.1015,-89.9782,0.0,10.31,43.0,,'11111222,11111222,99999999' 
WAVCIS,ioos:station:WAVCIS:CSI09:1,2011-02-04T11:00:00Z,29.1015,-89.9782,0.0,11.51,64.0,,'11111222,11111222,99999999' 
WAVCIS,ioos:station:WAVCIS:CSI09:1,2011-02-04T12:00:00Z,29.1015,-89.9782,0.0,9.27,67.0,,'11111222,11111222,99999999' 
WAVCIS,ioos:station:WAVCIS:CSI09:1,2011-02-04T13:00:00Z,29.1015,-89.9782,0.0,9.69,10.0,,'11111222,11111222,99999999' 
WAVCIS,ioos:station:WAVCIS:CSI09:1,2011-02-04T14:00:00Z,29.1015,-89.9782,0.0,10.93,13.0,,'11111222,11111222,99999999' 
WAVCIS,ioos:station:WAVCIS:CSI09:1,2011-02-04T15:00:00Z,29.1015,-89.9782,0.0,13.5,6.0,,'11111222,11111222,99999999' 
WAVCIS,ioos:station:WAVCIS:CSI09:1,2011-02-04T16:00:00Z,29.1015,-89.9782,0.0,13.64,13.0,,'11111222,11111222,99999999' 
WAVCIS,ioos:station:WAVCIS:CSI09:1,2011-02-04T17:00:00Z,29.1015,-89.9782,0.0,13.38,5.0,,'11111222,11111222,99999999' 
WAVCIS,ioos:station:WAVCIS:CSI09:1,2011-02-04T18:00:00Z,29.1015,-89.9782,0.0,11.22,359.0,,'11111222,11111222,99999999' 
WAVCIS,ioos:station:WAVCIS:CSI09:1,2011-02-04T19:00:00Z,29.1015,-89.9782,0.0,9.98,1.0,,'11111222,11111222,99999999' 
WAVCIS,ioos:station:WAVCIS:CSI09:1,2011-02-04T20:00:00Z,29.1015,-89.9782,0.0,8.98,334.0,,'11111222,11111222,99999999' 
WAVCIS,ioos:station:WAVCIS:CSI09:1,2011-02-04T21:00:00Z,29.1015,-89.9782,0.0,9.65,325.0,,'11111222,11111222,99999999' 
WAVCIS,ioos:station:WAVCIS:CSI09:1,2011-02-04T22:00:00Z,29.1015,-89.9782,0.0,9.39,312.0,,'11111222,11111222,99999999' 
WAVCIS,ioos:station:WAVCIS:CSI09:1,2011-02-04T23:00:00Z,29.1015,-89.9782,0.0,8.17,310.0,,'11111222,11111222,99999999' 
WAVCIS,ioos:station:WAVCIS:CSI09:1,2011-02-05T00:00:00Z,29.1015,-89.9782,0.0,5.742,310.0,,'11111222,11111222,99999999' 
WAVCIS,ioos:station:WAVCIS:CSI09:1,2011-02-05T01:00:00Z,29.1015,-89.9782,0.0,6.658,298.0,,'11111222,11111222,99999999' 
WAVCIS,ioos:station:WAVCIS:CSI09:1,2011-02-05T02:00:00Z,29.1015,-89.9782,0.0,8.76,284.0,,'11111222,11111222,99999999' 
WAVCIS,ioos:station:WAVCIS:CSI09:1,2011-02-05T03:00:00Z,29.1015,-89.9782,0.0,11.11,289.0,,'11111222,11111222,99999999' 
WAVCIS,ioos:station:WAVCIS:CSI09:1,2011-02-05T04:00:00Z,29.1015,-89.9782,0.0,10.32,288.0,,'11111222,11111222,99999999' 
WAVCIS,ioos:station:WAVCIS:CSI09:1,2011-02-05T05:00:00Z,29.1015,-89.9782,0.0,10.77,283.0,,'11111222,11111222,99999999' 
WAVCIS,ioos:station:WAVCIS:CSI09:1,2011-02-05T06:00:00Z,29.1015,-89.9782,0.0,12.06,281.0,,'11111222,11111222,99999999' 
WAVCIS,ioos:station:WAVCIS:CSI09:1,2011-02-05T07:00:00Z,29.1015,-89.9782,0.0,12.17,284.0,,'11111222,11111222,99999999' 
WAVCIS,ioos:station:WAVCIS:CSI09:1,2011-02-05T08:00:00Z,29.1015,-89.9782,0.0,14.24,291.0,,'11111222,11111222,99999999' 
WAVCIS,ioos:station:WAVCIS:CSI09:1,2011-02-05T09:00:00Z,29.1015,-89.9782,0.0,12.37,286.0,,'11111222,11111222,99999999' 
WAVCIS,ioos:station:WAVCIS:CSI09:1,2011-02-05T10:00:00Z,29.1015,-89.9782,0.0,11.59,294.0,,'11111222,11111222,99999999' 
WAVCIS,ioos:station:WAVCIS:CSI09:1,2011-02-05T11:00:00Z,29.1015,-89.9782,0.0,10.97,288.0,,'11111222,11111222,99999999' 
WAVCIS,ioos:station:WAVCIS:CSI09:1,2011-02-05T12:00:00Z,29.1015,-89.9782,0.0,8.48,305.0,,'11111222,11111222,99999999' 
WAVCIS,ioos:station:WAVCIS:CSI09:1,2011-02-05T13:00:00Z,29.1015,-89.9782,0.0,9.91,308.0,,'11111222,11111222,99999999' 
WAVCIS,ioos:station:WAVCIS:CSI09:1,2011-02-05T14:00:00Z,29.1015,-89.9782,0.0,8.27,314.0,,'11111222,11111222,99999999' 
WAVCIS,ioos:station:WAVCIS:CSI09:1,2011-02-05T15:00:00Z,29.1015,-89.9782,0.0,8.76,322.0,,'11111222,11111222,99999999' 
WAVCIS,ioos:station:WAVCIS:CSI09:1,2011-02-05T16:00:00Z,29.1015,-89.9782,0.0,6.439,318.0,,'11111222,11111222,99999999' 
WAVCIS,ioos:station:WAVCIS:CSI09:1,2011-02-05T17:00:00Z,29.1015,-89.9782,0.0,5.386,297.0,,'11111222,11111222,99999999' 
WAVCIS,ioos:station:WAVCIS:CSI09:1,2011-02-05T18:00:00Z,29.1015,-89.9782,0.0,5.797,295.0,,'11111222,11111222,99999999' 
WAVCIS,ioos:station:WAVCIS:CSI09:1,2011-02-05T19:00:00Z,29.1015,-89.9782,0.0,6.322,284.0,,'11111222,11111222,99999999' 
WAVCIS,ioos:station:WAVCIS:CSI09:1,2011-02-05T20:00:00Z,29.1015,-89.9782,0.0,6.682,275.0,,'11111222,11111222,99999999' 
WAVCIS,ioos:station:WAVCIS:CSI09:1,2011-02-05T21:00:00Z,29.1015,-89.9782,0.0,6.454,287.0,,'11111222,11111222,99999999' 
WAVCIS,ioos:station:WAVCIS:CSI09:1,2011-02-05T22:00:00Z,29.1015,-89.9782,0.0,6.134,273.0,,'11111222,11111222,99999999' 
WAVCIS,ioos:station:WAVCIS:CSI09:1,2011-02-05T23:00:00Z,29.1015,-89.9782,0.0,5.478,272.0,,'11111222,11111222,99999999' 
WAVCIS,ioos:station:WAVCIS:CSI09:1,2011-02-06T00:00:00Z,29.1015,-89.9782,0.0,6.37,278.0,,'11111222,11111222,99999999' 
WAVCIS,ioos:station:WAVCIS:CSI09:1,2011-02-06T01:00:00Z,29.1015,-89.9782,0.0,5.633,279.0,,'11111222,11111222,99999999' 
WAVCIS,ioos:station:WAVCIS:CSI09:1,2011-02-06T02:00:00Z,29.1015,-89.9782,0.0,5.85,275.0,,'11111222,11111222,99999999' 
WAVCIS,ioos:station:WAVCIS:CSI09:1,2011-02-06T03:00:00Z,29.1015,-89.9782,0.0,5.513,286.0,,'11111222,11111222,99999999' 
WAVCIS,ioos:station:WAVCIS:CSI09:1,2011-02-06T04:00:00Z,29.1015,-89.9782,0.0,4.233,285.0,,'11111222,11111222,99999999' 
WAVCIS,ioos:station:WAVCIS:CSI09:1,2011-02-06T05:00:00Z,29.1015,-89.9782,0.0,2.573,271.0,,'11111222,11111222,99999999' 
WAVCIS,ioos:station:WAVCIS:CSI09:1,2011-02-06T06:00:00Z,29.1015,-89.9782,0.0,1.541,263.0,,'11111222,11111222,99999999' 
WAVCIS,ioos:station:WAVCIS:CSI09:1,2011-02-06T07:00:00Z,29.1015,-89.9782,0.0,0.189,276.0,,'11111222,11111222,99999999' 
WAVCIS,ioos:station:WAVCIS:CSI09:1,2011-02-06T08:00:00Z,29.1015,-89.9782,0.0,0.145,7.0,,'11111222,11111222,99999999' 
WAVCIS,ioos:station:WAVCIS:CSI09:1,2011-02-06T09:00:00Z,29.1015,-89.9782,0.0,0.342,23.0,,'11111222,11111222,99999999' 
WAVCIS,ioos:station:WAVCIS:CSI09:1,2011-02-06T10:00:00Z,29.1015,-89.9782,0.0,2.574,179.0,,'11111222,11111222,99999999' 
WAVCIS,ioos:station:WAVCIS:CSI09:1,2011-02-06T11:00:00Z,29.1015,-89.9782,0.0,3.513,168.0,,'11111222,11111222,99999999' 
WAVCIS,ioos:station:WAVCIS:CSI09:1,2011-02-06T12:00:00Z,29.1015,-89.9782,0.0,2.674,222.0,,'11111222,11111222,99999999' 
WAVCIS,ioos:station:WAVCIS:CSI09:1,2011-02-06T13:00:00Z,29.1015,-89.9782,0.0,2.129,187.0,,'11111222,11111222,99999999' 
WAVCIS,ioos:station:WAVCIS:CSI09:1,2011-02-06T14:00:00Z,29.1015,-89.9782,0.0,5.007,119.0,,'11111222,11111222,99999999' 
WAVCIS,ioos:station:WAVCIS:CSI09:1,2011-02-06T15:00:00Z,29.1015,-89.9782,0.0,5.585,119.0,,'11111222,11111222,99999999' 
WAVCIS,ioos:station:WAVCIS:CSI09:1,2011-02-06T16:00:00Z,29.1015,-89.9782,0.0,4.995,105.0,,'11111222,11111222,99999999' 
WAVCIS,ioos:station:WAVCIS:CSI09:1,2011-02-06T17:00:00Z,29.1015,-89.9782,0.0,4.764,93.0,,'11111222,11111222,99999999' 
WAVCIS,ioos:station:WAVCIS:CSI09:1,2011-02-06T18:00:00Z,29.1015,-89.9782,0.0,6.244,116.0,,'11111222,11111222,99999999' 
WAVCIS,ioos:station:WAVCIS:CSI09:1,2011-02-06T19:00:00Z,29.1015,-89.9782,0.0,6.753,117.0,,'11111222,11111222,99999999' 
WAVCIS,ioos:station:WAVCIS:CSI09:1,2011-02-06T20:00:00Z,29.1015,-89.9782,0.0,6.173,115.0,,'11111222,11111222,99999999' 
WAVCIS,ioos:station:WAVCIS:CSI09:1,2011-02-06T21:00:00Z,29.1015,-89.9782,0.0,6.792,127.0,,'11111222,11111222,99999999' 
WAVCIS,ioos:station:WAVCIS:CSI09:1,2011-02-06T22:00:00Z,29.1015,-89.9782,0.0,7.11,124.0,,'11111222,11111222,99999999' 
WAVCIS,ioos:station:WAVCIS:CSI09:1,2011-02-06T23:00:00Z,29.1015,-89.9782,0.0,7.32,120.0,,'11111222,11111222,99999999' 
WAVCIS,ioos:station:WAVCIS:CSI09:1,2011-02-07T00:00:00Z,29.1015,-89.9782,0.0,7.82,113.0,,'11111222,11111222,99999999' 
WAVCIS,ioos:station:WAVCIS:CSI09:1,2011-02-07T01:00:00Z,29.1015,-89.9782,0.0,8.86,116.0,,'11111222,11111222,99999999' 
WAVCIS,ioos:station:WAVCIS:CSI09:1,2011-02-07T02:00:00Z,29.1015,-89.9782,0.0,9.47,120.0,,'11111222,11111222,99999999' 
WAVCIS,ioos:station:WAVCIS:CSI09:1,2011-02-07T03:00:00Z,29.1015,-89.9782,0.0,8.02,124.0,,'11111222,11111222,99999999' 
WAVCIS,ioos:station:WAVCIS:CSI09:1,2011-02-07T04:00:00Z,29.1015,-89.9782,0.0,7.81,126.0,,'11111222,11111222,99999999' 
WAVCIS,ioos:station:WAVCIS:CSI09:1,2011-02-07T05:00:00Z,29.1015,-89.9782,0.0,6.741,132.0,,'11111222,11111222,99999999' 
WAVCIS,ioos:station:WAVCIS:CSI09:1,2011-02-07T06:00:00Z,29.1015,-89.9782,0.0,6.432,136.0,,'11111222,11111222,99999999' 
WAVCIS,ioos:station:WAVCIS:CSI09:1,2011-02-07T07:00:00Z,29.1015,-89.9782,0.0,5.895,138.0,,'11111222,11111222,99999999' 
WAVCIS,ioos:station:WAVCIS:CSI09:1,2011-02-07T08:00:00Z,29.1015,-89.9782,0.0,6.092,161.0,,'11111222,11111222,99999999' 
WAVCIS,ioos:station:WAVCIS:CSI09:1,2011-02-07T09:00:00Z,29.1015,-89.9782,0.0,5.674,155.0,,'11111222,11111222,99999999' 
WAVCIS,ioos:station:WAVCIS:CSI09:1,2011-02-07T10:00:00Z,29.1015,-89.9782,0.0,6.83,158.0,,'11111222,11111222,99999999' 
WAVCIS,ioos:station:WAVCIS:CSI09:1,2011-02-07T11:00:00Z,29.1015,-89.9782,0.0,4.341,162.0,,'11111222,11111222,99999999' 
WAVCIS,ioos:station:WAVCIS:CSI09:1,2011-02-07T12:00:00Z,29.1015,-89.9782,0.0,4.289,171.0,,'11111222,11111222,99999999' 
WAVCIS,ioos:station:WAVCIS:CSI09:1,2011-02-07T13:00:00Z,29.1015,-89.9782,0.0,6.251,279.0,,'11111222,11111222,99999999' 
WAVCIS,ioos:station:WAVCIS:CSI09:1,2011-02-07T14:00:00Z,29.1015,-89.9782,0.0,8.9,280.0,,'11111222,11111222,99999999' 
WAVCIS,ioos:station:WAVCIS:CSI09:1,2011-02-07T15:00:00Z,29.1015,-89.9782,0.0,12.68,284.0,,'11111222,11111222,99999999' 
WAVCIS,ioos:station:WAVCIS:CSI09:1,2011-02-07T16:00:00Z,29.1015,-89.9782,0.0,11.65,281.0,,'11111222,11111222,99999999' 
WAVCIS,ioos:station:WAVCIS:CSI09:1,2011-02-07T17:00:00Z,29.1015,-89.9782,0.0,13.67,278.0,,'11111222,11111222,99999999' 
WAVCIS,ioos:station:WAVCIS:CSI09:1,2011-02-07T18:00:00Z,29.1015,-89.9782,0.0,12.64,283.0,,'11111222,11111222,99999999' 
WAVCIS,ioos:station:WAVCIS:CSI09:1,2011-02-07T19:00:00Z,29.1015,-89.9782,0.0,13.74,308.0,,'11111222,11111222,99999999' 
WAVCIS,ioos:station:WAVCIS:CSI09:1,2011-02-07T20:00:00Z,29.1015,-89.9782,0.0,14.83,308.0,,'11111222,11111222,99999999' 
WAVCIS,ioos:station:WAVCIS:CSI09:1,2011-02-07T21:00:00Z,29.1015,-89.9782,0.0,14.07,311.0,,'11111222,11111222,99999999' 
WAVCIS,ioos:station:WAVCIS:CSI09:1,2011-02-07T22:00:00Z,29.1015,-89.9782,0.0,13.25,318.0,,'11111222,11111222,99999999' 
WAVCIS,ioos:station:WAVCIS:CSI09:1,2011-02-07T23:00:00Z,29.1015,-89.9782,0.0,13.63,331.0,,'11111222,11111222,99999999' 
WAVCIS,ioos:station:WAVCIS:CSI09:1,2011-02-08T00:00:00Z,29.1015,-89.9782,0.0,14.88,317.0,,'11111222,11111222,99999999' 
WAVCIS,ioos:station:WAVCIS:CSI09:1,2011-02-08T01:00:00Z,29.1015,-89.9782,0.0,14.37,332.0,,'11111222,11111222,99999999' 
WAVCIS,ioos:station:WAVCIS:CSI09:1,2011-02-08T02:00:00Z,29.1015,-89.9782,0.0,12.77,333.0,,'11111222,11111222,99999999' 
WAVCIS,ioos:station:WAVCIS:CSI09:1,2011-02-08T03:00:00Z,29.1015,-89.9782,0.0,13.14,331.0,,'11111222,11111222,99999999' 
WAVCIS,ioos:station:WAVCIS:CSI09:1,2011-02-08T04:00:00Z,29.1015,-89.9782,0.0,11.45,349.0,,'11111222,11111222,99999999' 
WAVCIS,ioos:station:WAVCIS:CSI09:1,2011-02-08T05:00:00Z,29.1015,-89.9782,0.0,10.8,354.0,,'11111222,11111222,99999999' 
WAVCIS,ioos:station:WAVCIS:CSI09:1,2011-02-08T06:00:00Z,29.1015,-89.9782,0.0,9.78,11.0,,'11111222,11111222,99999999' 
WAVCIS,ioos:station:WAVCIS:CSI09:1,2011-02-08T07:00:00Z,29.1015,-89.9782,0.0,7.59,8.0,,'11111222,11111222,99999999' 
WAVCIS,ioos:station:WAVCIS:CSI09:1,2011-02-08T08:00:00Z,29.1015,-89.9782,0.0,6.039,7.0,,'11111222,11111222,99999999' 
WAVCIS,ioos:station:WAVCIS:CSI09:1,2011-02-08T09:00:00Z,29.1015,-89.9782,0.0,5.849,12.0,,'11111222,11111222,99999999' 
WAVCIS,ioos:station:WAVCIS:CSI09:1,2011-02-08T10:00:00Z,29.1015,-89.9782,0.0,5.163,2.0,,'11111222,11111222,99999999' 
WAVCIS,ioos:station:WAVCIS:CSI09:1,2011-02-08T11:00:00Z,29.1015,-89.9782,0.0,5.972,3.0,,'11111222,11111222,99999999' 
WAVCIS,ioos:station:WAVCIS:CSI09:1,2011-02-08T12:00:00Z,29.1015,-89.9782,0.0,6.967,12.0,,'11111222,11111222,99999999' 
WAVCIS,ioos:station:WAVCIS:CSI09:1,2011-02-08T13:00:00Z,29.1015,-89.9782,0.0,6.096,21.0,,'11111222,11111222,99999999' 
WAVCIS,ioos:station:WAVCIS:CSI09:1,2011-02-08T14:00:00Z,29.1015,-89.9782,0.0,5.221,27.0,,'11111222,11111222,99999999' 
WAVCIS,ioos:station:WAVCIS:CSI09:1,2011-02-08T15:00:00Z,29.1015,-89.9782,0.0,5.461,20.0,,'11111222,11111222,99999999' 
WAVCIS,ioos:station:WAVCIS:CSI09:1,2011-02-08T16:00:00Z,29.1015,-89.9782,0.0,5.484,19.0,,'11111222,11111222,99999999' 
WAVCIS,ioos:station:WAVCIS:CSI09:1,2011-02-08T17:00:00Z,29.1015,-89.9782,0.0,5.534,29.0,,'11111222,11111222,99999999' 
WAVCIS,ioos:station:WAVCIS:CSI09:1,2011-02-08T18:00:00Z,29.1015,-89.9782,0.0,5.716,27.0,,'11111222,11111222,99999999' 
WAVCIS,ioos:station:WAVCIS:CSI09:1,2011-02-08T19:00:00Z,29.1015,-89.9782,0.0,4.444,38.0,,'11111222,11111222,99999999' 
WAVCIS,ioos:station:WAVCIS:CSI09:1,2011-02-08T20:00:00Z,29.1015,-89.9782,0.0,4.606,45.0,,'11111222,11111222,99999999' 
WAVCIS,ioos:station:WAVCIS:CSI09:1,2011-02-08T21:00:00Z,29.1015,-89.9782,0.0,5.61,40.0,,'11111222,11111222,99999999' 
WAVCIS,ioos:station:WAVCIS:CSI09:1,2011-02-08T22:00:00Z,29.1015,-89.9782,0.0,6.475,59.0,,'11111222,11111222,99999999' 
WAVCIS,ioos:station:WAVCIS:CSI09:1,2011-02-08T23:00:00Z,29.1015,-89.9782,0.0,8.0,53.0,,'11111222,11111222,99999999' 
WAVCIS,ioos:station:WAVCIS:CSI09:1,2011-02-09T00:00:00Z,29.1015,-89.9782,0.0,8.46,56.0,,'11111222,11111222,99999999' 
WAVCIS,ioos:station:WAVCIS:CSI09:1,2011-02-09T01:00:00Z,29.1015,-89.9782,0.0,7.45,77.0,,'11111222,11111222,99999999' 
WAVCIS,ioos:station:WAVCIS:CSI09:1,2011-02-09T02:00:00Z,29.1015,-89.9782,0.0,9.04,82.0,,'11111222,11111222,99999999' 
WAVCIS,ioos:station:WAVCIS:CSI09:1,2011-02-09T03:00:00Z,29.1015,-89.9782,0.0,8.1,91.0,,'11111222,11111222,99999999' 
WAVCIS,ioos:station:WAVCIS:CSI09:1,2011-02-09T04:00:00Z,29.1015,-89.9782,0.0,7.98,88.0,,'11111222,11111222,99999999' 
WAVCIS,ioos:station:WAVCIS:CSI09:1,2011-02-09T05:00:00Z,29.1015,-89.9782,0.0,7.19,96.0,,'11111222,11111222,99999999' 
WAVCIS,ioos:station:WAVCIS:CSI09:1,2011-02-09T06:00:00Z,29.1015,-89.9782,0.0,7.35,86.0,,'11111222,11111222,99999999' 
WAVCIS,ioos:station:WAVCIS:CSI09:1,2011-02-09T07:00:00Z,29.1015,-89.9782,0.0,5.712,98.0,,'11111222,11111222,99999999' 